Time,TemperatureF,DewpointF,PressureIn,WindDirection,WindDirectionDegrees,WindSpeedMPH,WindSpeedGustMPH,Humidity,HourlyPrecipIn,Conditions,Clouds,dailyrainin,SoftwareType,DateUTC
2013-03-04 00:12:00,6.8,3.0,29.76,North,-999,0.0,0.0,85,0.00,,,0.00,weatherlink.com 1.10,2013-03-04 07:12:00,
2013-03-04 00:27:00,6.8,4.0,29.77,North,-999,0.0,0.0,86,0.00,,,0.00,weatherlink.com 1.10,2013-03-04 07:27:00,
2013-03-04 00:42:00,6.5,3.0,29.77,North,-999,0.0,0.0,86,0.00,,,0.00,weatherlink.com 1.10,2013-03-04 07:42:00,
2013-03-04 00:57:00,6.4,3.0,29.78,North,-999,0.0,0.0,86,0.00,,,0.00,weatherlink.com 1.10,2013-03-04 07:57:00,
2013-03-04 01:12:00,6.4,3.0,29.78,North,-999,0.0,0.0,86,0.00,,,0.00,weatherlink.com 1.10,2013-03-04 08:12:00,
2013-03-04 01:27:00,6.2,3.0,29.79,North,-999,0.0,0.0,85,0.00,,,0.00,weatherlink.com 1.10,2013-03-04 08:27:00,
2013-03-04 01:42:00,5.3,2.0,29.79,North,-999,0.0,0.0,84,0.00,,,0.00,weatherlink.com 1.10,2013-03-04 08:42:00,
2013-03-04 01:57:00,4.8,1.0,29.80,North,-999,0.0,0.0,85,0.00,,,0.00,weatherlink.com 1.10,2013-03-04 08:57:00,
2013-03-04 02:13:00,4.4,1.0,29.80,North,-999,0.0,0.0,85,0.00,,,0.00,weatherlink.com 1.10,2013-03-04 09:13:00,
2013-03-04 02:28:00,3.9,0.0,29.81,North,-999,0.0,0.0,84,0.00,,,0.00,weatherlink.com 1.10,2013-03-04 09:28:00,
2013-03-04 02:43:00,3.2,-1.0,29.81,North,-999,0.0,0.0,84,0.00,,,0.00,weatherlink.com 1.10,2013-03-04 09:43:00,
2013-03-04 02:58:00,3.0,-1.0,29.81,North,-999,0.0,0.0,84,0.00,,,0.00,weatherlink.com 1.10,2013-03-04 09:58:00,
2013-03-04 03:13:00,3.1,0.0,29.82,North,-999,0.0,0.0,85,0.00,,,0.00,weatherlink.com 1.10,2013-03-04 10:13:00,
2013-03-04 03:28:00,2.6,-1.0,29.82,North,-999,0.0,0.0,84,0.00,,,0.00,weatherlink.com 1.10,2013-03-04 10:28:00,
2013-03-04 03:43:00,2.1,-2.0,29.82,North,-999,0.0,0.0,84,0.00,,,0.00,weatherlink.com 1.10,2013-03-04 10:43:00,
2013-03-04 03:59:00,1.7,-2.0,29.83,North,-999,0.0,0.0,85,0.00,,,0.00,weatherlink.com 1.10,2013-03-04 10:59:00,
2013-03-04 04:14:00,1.4,-2.0,29.83,North,-999,0.0,0.0,84,0.00,,,0.00,weatherlink.com 1.10,2013-03-04 11:14:00,
2013-03-04 04:28:00,1.2,-2.0,29.84,North,-999,0.0,0.0,85,0.00,,,0.00,weatherlink.com 1.10,2013-03-04 11:28:00,
2013-03-04 04:43:00,1.3,-2.0,29.84,North,-999,0.0,0.0,85,0.00,,,0.00,weatherlink.com 1.10,2013-03-04 11:43:00,
2013-03-04 04:58:00,1.2,-2.0,29.85,North,-999,0.0,0.0,85,0.00,,,0.00,weatherlink.com 1.10,2013-03-04 11:58:00,
2013-03-04 05:13:00,1.3,-2.0,29.85,North,-999,0.0,0.0,85,0.00,,,0.00,weatherlink.com 1.10,2013-03-04 12:13:00,
2013-03-04 05:29:00,1.7,-2.0,29.86,North,-999,0.0,0.0,86,0.00,,,0.00,weatherlink.com 1.10,2013-03-04 12:29:00,
2013-03-04 05:44:00,1.9,-2.0,29.86,North,-999,0.0,0.0,85,0.00,,,0.00,weatherlink.com 1.10,2013-03-04 12:44:00,
2013-03-04 05:59:00,2.1,-1.0,29.86,North,-999,0.0,0.0,85,0.00,,,0.00,weatherlink.com 1.10,2013-03-04 12:59:00,
2013-03-04 06:14:00,2.3,-1.0,29.87,North,-999,0.0,0.0,86,0.00,,,0.00,weatherlink.com 1.10,2013-03-04 13:14:00,
2013-03-04 06:29:00,2.4,-1.0,29.87,North,-999,0.0,0.0,86,0.00,,,0.00,weatherlink.com 1.10,2013-03-04 13:29:00,
2013-03-04 06:44:00,2.6,-1.0,29.87,North,-999,0.0,0.0,86,0.00,,,0.00,weatherlink.com 1.10,2013-03-04 13:44:00,
2013-03-04 07:00:00,2.7,-1.0,29.87,North,-999,0.0,0.0,86,0.00,,,0.00,weatherlink.com 1.10,2013-03-04 14:00:00,
2013-03-04 07:15:00,2.8,0.0,29.88,North,-999,0.0,0.0,86,0.00,,,0.00,weatherlink.com 1.10,2013-03-04 14:15:00,
2013-03-04 07:30:00,2.8,-1.0,29.88,North,-999,0.0,0.0,85,0.00,,,0.00,weatherlink.com 1.10,2013-03-04 14:30:00,
2013-03-04 07:45:00,2.9,0.0,29.88,North,-999,0.0,0.0,86,0.00,,,0.00,weatherlink.com 1.10,2013-03-04 14:45:00,
2013-03-04 08:00:00,3.4,0.0,29.88,North,-999,0.0,0.0,86,0.00,,,0.00,weatherlink.com 1.10,2013-03-04 15:00:00,
2013-03-04 08:15:00,4.0,1.0,29.89,North,-999,0.0,0.0,86,0.00,,,0.00,weatherlink.com 1.10,2013-03-04 15:15:00,
2013-03-04 08:31:00,4.8,2.0,29.89,North,-999,0.0,0.0,86,0.00,,,0.00,weatherlink.com 1.10,2013-03-04 15:31:00,
2013-03-04 08:46:00,5.8,3.0,29.89,North,-999,0.0,0.0,86,0.00,,,0.00,weatherlink.com 1.10,2013-03-04 15:46:00,
2013-03-04 09:16:00,8.7,6.0,29.89,North,-999,0.0,0.0,87,0.00,,,0.00,weatherlink.com 1.10,2013-03-04 16:16:00,
2013-03-04 09:31:00,10.5,7.0,29.89,North,-999,0.0,0.0,85,0.00,,,0.00,weatherlink.com 1.10,2013-03-04 16:31:00,
2013-03-04 09:46:00,11.6,8.0,29.89,North,-999,0.0,0.0,84,0.00,,,0.00,weatherlink.com 1.10,2013-03-04 16:46:00,
2013-03-04 10:01:00,12.5,7.0,29.89,North,-999,0.0,0.0,80,0.00,,,0.00,weatherlink.com 1.10,2013-03-04 17:01:00,
2013-03-04 10:17:00,12.9,8.0,29.89,North,-999,0.0,0.0,80,0.00,,,0.00,weatherlink.com 1.10,2013-03-04 17:17:00,
2013-03-04 10:32:00,12.7,8.0,29.90,North,-999,0.0,0.0,81,0.00,,,0.00,weatherlink.com 1.10,2013-03-04 17:32:00,
2013-03-04 10:47:00,12.4,9.0,29.89,North,-999,0.0,0.0,86,0.00,,,0.00,weatherlink.com 1.10,2013-03-04 17:47:00,
2013-03-04 11:02:00,12.7,10.0,29.89,North,-999,0.0,0.0,88,0.00,,,0.00,weatherlink.com 1.10,2013-03-04 18:02:00,
2013-03-04 11:17:00,13.4,10.0,29.90,North,-999,0.0,0.0,87,0.00,,,0.00,weatherlink.com 1.10,2013-03-04 18:17:00,
2013-03-04 11:32:00,14.3,11.0,29.90,North,-999,0.0,0.0,86,0.00,,,0.00,weatherlink.com 1.10,2013-03-04 18:32:00,
2013-03-04 11:48:00,14.6,11.0,29.90,North,-999,0.0,0.0,86,0.00,,,0.00,weatherlink.com 1.10,2013-03-04 18:48:00,
2013-03-04 12:03:00,14.8,11.0,29.90,North,-999,0.0,0.0,86,0.00,,,0.00,weatherlink.com 1.10,2013-03-04 19:03:00,
2013-03-04 12:17:00,14.7,12.0,29.90,North,-999,0.0,0.0,87,0.00,,,0.00,weatherlink.com 1.10,2013-03-04 19:17:00,
2013-03-04 12:32:00,14.7,11.0,29.90,North,-999,0.0,0.0,86,0.00,,,0.00,weatherlink.com 1.10,2013-03-04 19:32:00,
2013-03-04 12:47:00,15.0,12.0,29.89,North,-999,0.0,0.0,86,0.00,,,0.00,weatherlink.com 1.10,2013-03-04 19:47:00,
2013-03-04 13:02:00,15.3,12.0,29.89,North,-999,0.0,0.0,85,0.00,,,0.00,weatherlink.com 1.10,2013-03-04 20:02:00,
2013-03-04 13:18:00,15.6,11.0,29.89,North,-999,0.0,0.0,83,0.00,,,0.00,weatherlink.com 1.10,2013-03-04 20:18:00,
2013-03-04 13:33:00,15.7,11.0,29.89,North,-999,0.0,0.0,81,0.00,,,0.00,weatherlink.com 1.10,2013-03-04 20:33:00,
2013-03-04 13:48:00,16.4,12.0,29.88,North,-999,0.0,0.0,83,0.00,,,0.00,weatherlink.com 1.10,2013-03-04 20:48:00,
2013-03-04 14:03:00,16.6,12.0,29.88,North,-999,0.0,0.0,83,0.00,,,0.00,weatherlink.com 1.10,2013-03-04 21:03:00,
2013-03-04 14:18:00,16.8,13.0,29.87,North,-999,0.0,0.0,83,0.00,,,0.00,weatherlink.com 1.10,2013-03-04 21:18:00,
2013-03-04 14:33:00,17.6,13.0,29.87,North,-999,0.0,0.0,82,0.00,,,0.00,weatherlink.com 1.10,2013-03-04 21:33:00,
2013-03-04 14:48:00,17.4,13.0,29.86,North,-999,0.0,0.0,82,0.00,,,0.00,weatherlink.com 1.10,2013-03-04 21:48:00,
2013-03-04 15:04:00,17.3,13.0,29.86,North,-999,0.0,0.0,84,0.00,,,0.00,weatherlink.com 1.10,2013-03-04 22:04:00,
2013-03-04 15:19:00,17.1,13.0,29.86,North,-999,0.0,0.0,84,0.00,,,0.00,weatherlink.com 1.10,2013-03-04 22:19:00,
2013-03-04 15:34:00,17.7,14.0,29.85,North,-999,0.0,0.0,85,0.00,,,0.00,weatherlink.com 1.10,2013-03-04 22:34:00,
2013-03-04 15:49:00,17.8,14.0,29.85,North,-999,0.0,0.0,85,0.00,,,0.00,weatherlink.com 1.10,2013-03-04 22:49:00,
2013-03-04 16:04:00,17.8,14.0,29.85,North,-999,0.0,0.0,84,0.00,,,0.00,weatherlink.com 1.10,2013-03-04 23:04:00,
2013-03-04 16:19:00,17.9,14.0,29.85,North,-999,0.0,0.0,84,0.00,,,0.00,weatherlink.com 1.10,2013-03-04 23:19:00,
2013-03-04 16:35:00,18.1,14.0,29.84,North,-999,0.0,0.0,85,0.00,,,0.00,weatherlink.com 1.10,2013-03-04 23:35:00,
2013-03-04 16:50:00,17.6,14.0,29.84,North,-999,0.0,0.0,85,0.00,,,0.00,weatherlink.com 1.10,2013-03-04 23:50:00,
2013-03-04 17:05:00,17.2,14.0,29.84,North,-999,0.0,0.0,86,0.00,,,0.00,weatherlink.com 1.10,2013-03-05 00:05:00,
2013-03-04 17:20:00,16.8,14.0,29.85,North,-999,0.0,0.0,87,0.00,,,0.00,weatherlink.com 1.10,2013-03-05 00:20:00,
2013-03-04 17:35:00,16.7,14.0,29.85,North,-999,0.0,0.0,88,0.00,,,0.00,weatherlink.com 1.10,2013-03-05 00:35:00,
2013-03-04 17:50:00,16.7,14.0,29.85,North,-999,0.0,0.0,87,0.00,,,0.00,weatherlink.com 1.10,2013-03-05 00:50:00,
2013-03-04 18:06:00,16.5,14.0,29.85,North,-999,0.0,0.0,88,0.00,,,0.00,weatherlink.com 1.10,2013-03-05 01:06:00,
2013-03-04 18:21:00,16.2,13.0,29.85,North,-999,0.0,0.0,88,0.00,,,0.00,weatherlink.com 1.10,2013-03-05 01:21:00,
2013-03-04 18:36:00,15.9,13.0,29.85,North,-999,0.0,0.0,88,0.00,,,0.00,weatherlink.com 1.10,2013-03-05 01:36:00,
2013-03-04 18:50:00,15.8,13.0,29.86,North,-999,0.0,0.0,88,0.00,,,0.00,weatherlink.com 1.10,2013-03-05 01:50:00,
2013-03-04 19:05:00,15.7,13.0,29.85,North,-999,0.0,0.0,87,0.00,,,0.00,weatherlink.com 1.10,2013-03-05 02:05:00,
2013-03-04 19:20:00,15.0,11.0,29.85,North,-999,0.0,0.0,85,0.00,,,0.00,weatherlink.com 1.10,2013-03-05 02:20:00,
2013-03-04 19:35:00,14.2,11.0,29.85,North,-999,0.0,0.0,85,0.00,,,0.00,weatherlink.com 1.10,2013-03-05 02:35:00,
2013-03-04 19:51:00,13.3,10.0,29.85,North,-999,0.0,0.0,85,0.00,,,0.00,weatherlink.com 1.10,2013-03-05 02:51:00,
2013-03-04 20:06:00,12.6,9.0,29.85,North,-999,0.0,0.0,86,0.00,,,0.00,weatherlink.com 1.10,2013-03-05 03:06:00,
2013-03-04 20:21:00,12.4,9.0,29.85,North,-999,0.0,0.0,87,0.00,,,0.00,weatherlink.com 1.10,2013-03-05 03:21:00,
2013-03-04 20:36:00,12.0,8.0,29.85,North,-999,0.0,0.0,85,0.00,,,0.00,weatherlink.com 1.10,2013-03-05 03:36:00,
2013-03-04 20:51:00,11.3,8.0,29.84,North,-999,0.0,0.0,86,0.00,,,0.00,weatherlink.com 1.10,2013-03-05 03:51:00,
2013-03-04 21:06:00,10.9,8.0,29.85,North,-999,0.0,0.0,86,0.00,,,0.00,weatherlink.com 1.10,2013-03-05 04:06:00,
2013-03-04 21:21:00,10.5,7.0,29.85,North,-999,0.0,0.0,86,0.00,,,0.00,weatherlink.com 1.10,2013-03-05 04:21:00,
2013-03-04 21:36:00,10.3,7.0,29.85,North,-999,0.0,0.0,86,0.00,,,0.00,weatherlink.com 1.10,2013-03-05 04:36:00,
2013-03-04 21:51:00,9.9,6.0,29.84,North,-999,0.0,0.0,85,0.00,,,0.00,weatherlink.com 1.10,2013-03-05 04:51:00,
2013-03-04 22:07:00,9.2,6.0,29.85,North,-999,0.0,0.0,85,0.00,,,0.00,weatherlink.com 1.10,2013-03-05 05:07:00,
2013-03-04 22:22:00,8.3,4.0,29.85,North,-999,0.0,0.0,84,0.00,,,0.00,weatherlink.com 1.10,2013-03-05 05:22:00,
2013-03-04 22:37:00,7.3,3.0,29.85,North,-999,0.0,0.0,83,0.00,,,0.00,weatherlink.com 1.10,2013-03-05 05:37:00,
2013-03-04 22:52:00,6.7,3.0,29.84,North,-999,0.0,0.0,85,0.00,,,0.00,weatherlink.com 1.10,2013-03-05 05:52:00,
2013-03-04 23:07:00,6.7,3.0,29.84,North,-999,0.0,0.0,86,0.00,,,0.00,weatherlink.com 1.10,2013-03-05 06:07:00,
2013-03-04 23:22:00,7.0,4.0,29.84,North,-999,0.0,0.0,86,0.00,,,0.00,weatherlink.com 1.10,2013-03-05 06:22:00,
2013-03-04 23:37:00,7.1,4.0,29.84,North,-999,0.0,0.0,86,0.00,,,0.00,weatherlink.com 1.10,2013-03-05 06:37:00,
2013-03-04 23:52:00,7.4,4.0,29.84,North,-999,0.0,0.0,86,0.00,,,0.00,weatherlink.com 1.10,2013-03-05 06:52:00,